PBO Station Position Time Series. Reference Frame : NAM14
Format Version,1.1.0
4-character ID,P326
Station name,ShowersMtnCN2006
Begin Date, 2006-05-19
End Date, 2019-10-07
Release Date, 2019-10-08
Reference position, 40.5753140650 North Latitude, -123.6989309588 East Longitude, 1261.68982 meters elevation,
Date, North (mm), East (mm), Vertical (mm), North Std. Deviation (mm), East Std. Deviation (mm),              Vertical Std. Deviation (mm), Quality,
2006-05-19,0.00, 0.00, 0.00, 2.16, 1.60, 7.45, repro,
2006-05-20,0.29, -0.84, -2.26, 2.19, 1.62, 7.55, repro,
2006-05-21,-0.61, -2.19, 1.44, 2.19, 1.63, 7.65, repro,
2006-05-22,-0.78, -1.08, 6.75, 2.17, 1.66, 7.62, repro,
2006-05-23,3.88, -0.69, 5.11, 2.16, 1.62, 7.46, repro,
2006-05-24,-0.30, 1.30, -6.53, 2.15, 1.61, 7.44, repro,
2006-05-25,0.50, 0.45, -0.64, 2.30, 1.69, 7.95, repro,
2006-05-26,-0.11, 0.00, -4.20, 2.29, 1.73, 7.94, repro,
2006-05-27,-2.70, 0.54, 4.32, 2.16, 1.60, 7.43, repro,
2006-05-28,-0.99, 0.55, 0.22, 2.14, 1.62, 7.48, repro,
2006-05-29,1.29, -0.83, -0.04, 2.17, 1.61, 7.45, repro,
2006-05-30,-0.14, -0.41, -1.18, 2.23, 1.66, 7.76, repro,
2006-05-31,0.21, -2.13, -2.17, 2.25, 1.71, 7.88, repro,
2006-06-01,-1.25, -0.56, 0.74, 2.24, 1.70, 7.82, repro,
2006-06-02,-0.31, 0.53, 5.37, 2.26, 1.68, 7.91, repro,
2006-06-03,-0.70, -0.93, 5.80, 2.27, 1.69, 7.96, repro,
2006-06-04,0.16, -0.75, -5.81, 2.26, 1.65, 7.80, repro,
2006-06-05,-0.25, -1.81, 4.63, 2.26, 1.66, 7.89, repro,
2006-06-06,-2.41, -1.81, 10.25, 2.25, 1.66, 7.86, repro,
2006-06-07,-2.41, -1.97, 6.00, 2.24, 1.66, 7.82, repro,
2006-06-08,-0.83, -1.38, 3.81, 2.15, 1.63, 7.55, repro,
2006-06-09,-1.27, -0.19, -0.98, 2.17, 1.61, 7.45, repro,
2006-06-10,-0.55, -1.34, 6.11, 2.17, 1.62, 7.56, repro,
2006-06-11,-2.05, 0.02, 7.11, 2.20, 1.65, 7.70, repro,
2006-06-12,-1.72, -0.77, 2.25, 2.21, 1.67, 7.81, repro,
2006-06-13,-2.46, -0.81, 8.50, 2.23, 1.64, 7.67, repro,
2006-06-14,-1.29, -1.74, 3.54, 2.23, 1.67, 7.76, repro,
2006-06-15,-1.15, -0.20, 0.29, 2.15, 1.62, 7.46, repro,
2006-06-16,-0.57, -0.02, 2.17, 2.14, 1.61, 7.47, repro,
2006-06-17,-1.43, -0.04, 8.26, 2.19, 1.68, 7.65, repro,
2006-06-18,-1.89, -0.55, 11.98, 2.20, 1.65, 7.76, repro,
2006-06-19,-0.63, -1.17, 1.82, 2.33, 1.80, 8.25, repro,
2006-06-20,-1.13, -1.30, 4.32, 2.18, 1.67, 7.78, repro,
2006-06-21,-0.11, 0.13, 8.19, 2.17, 1.66, 7.69, repro,
2006-06-22,-2.17, -0.99, 6.32, 2.18, 1.67, 7.79, repro,
2006-06-23,-1.18, -1.28, 0.39, 2.26, 1.74, 7.96, repro,
2006-06-24,0.23, -1.16, 9.81, 2.21, 1.68, 7.85, repro,
2006-06-25,-1.55, -1.79, 1.55, 2.26, 1.75, 7.99, repro,
2006-06-26,-0.91, 0.72, -0.10, 2.16, 1.66, 7.65, repro,
2006-06-27,-2.18, -1.44, 10.37, 2.23, 1.73, 7.87, repro,
2006-06-28,-2.97, -2.34, 4.65, 2.22, 1.73, 7.84, repro,
2006-06-29,-3.10, -2.18, 13.94, 2.12, 1.63, 7.59, repro,
2006-06-30,-0.99, -1.69, 7.06, 2.14, 1.64, 7.61, repro,
2006-07-01,-1.21, -2.37, 7.94, 2.12, 1.62, 7.54, repro,
2006-07-02,-2.41, -0.59, 2.92, 2.16, 1.67, 7.72, repro,
2006-07-03,-0.26, -0.65, 3.03, 2.14, 1.62, 7.63, repro,
2006-07-04,-2.12, -2.18, 11.63, 2.14, 1.61, 7.58, repro,
2006-07-05,-0.41, -1.09, 0.28, 2.21, 1.70, 7.83, repro,
2006-07-06,-0.32, -0.58, -5.75, 2.19, 1.71, 7.79, repro,
2006-07-07,-1.11, -0.82, -1.97, 2.15, 1.64, 7.64, repro,
2006-07-08,-0.52, -1.13, 1.42, 2.19, 1.67, 7.85, repro,
2006-07-09,-0.75, -0.96, 5.35, 2.21, 1.65, 7.82, repro,
2006-07-10,-2.08, -1.95, 4.87, 2.15, 1.64, 7.72, repro,
2006-07-11,0.31, -1.75, 7.99, 2.30, 1.80, 8.42, repro,
2006-07-12,-0.02, -0.43, 0.71, 2.20, 1.70, 7.81, repro,
2006-07-13,-2.13, 0.31, 2.21, 2.16, 1.62, 7.69, repro,
2006-07-14,-0.16, 0.32, 4.38, 2.14, 1.62, 7.62, repro,
2006-07-15,-0.70, -1.68, 9.76, 2.13, 1.61, 7.60, repro,
2006-07-16,-0.42, -1.10, 8.57, 2.13, 1.63, 7.64, repro,
2006-07-17,-1.04, -1.51, 4.57, 2.17, 1.68, 7.93, repro,
2006-07-18,-1.43, -0.30, 8.68, 2.09, 1.58, 7.35, repro,
2006-07-19,-1.21, -0.38, -1.23, 2.08, 1.58, 7.35, repro,
2006-07-20,-0.87, -0.54, 10.27, 2.07, 1.58, 7.32, repro,
2006-07-21,0.43, -1.02, 7.62, 2.09, 1.58, 7.37, repro,
2006-07-22,-1.06, -1.86, 11.16, 2.15, 1.66, 7.61, repro,
2006-07-23,-1.48, -0.33, 9.25, 2.09, 1.59, 7.35, repro,
2006-07-24,0.27, -1.25, 0.19, 2.20, 1.68, 7.82, repro,
2006-07-25,-2.36, -0.31, 13.74, 2.18, 1.69, 7.73, repro,
2006-07-26,-0.40, -1.30, 7.56, 2.08, 1.59, 7.40, repro,
2006-07-27,0.08, -1.77, 7.85, 2.07, 1.59, 7.36, repro,
2006-07-28,-1.42, -0.70, 11.14, 2.12, 1.64, 7.52, repro,
2006-07-29,0.57, -0.24, 2.85, 2.13, 1.62, 7.50, repro,
2006-07-30,-0.65, -2.19, 10.16, 2.12, 1.65, 7.60, repro,
2006-07-31,0.18, -0.29, 5.69, 2.07, 1.59, 7.37, repro,
2006-08-01,-0.20, -2.11, 13.33, 2.10, 1.61, 7.53, repro,
2006-08-02,-0.49, -0.82, 7.42, 2.11, 1.63, 7.63, repro,
2006-08-03,-0.37, -0.86, 9.02, 2.17, 1.67, 7.75, repro,
2006-08-04,-0.04, -0.79, 8.79, 2.19, 1.67, 7.80, repro,
2006-08-05,-0.87, -0.41, 9.94, 2.16, 1.70, 7.86, repro,
2006-08-06,-0.49, -0.76, 10.53, 2.15, 1.66, 7.90, repro,
2006-08-07,-1.76, -1.34, 14.31, 2.11, 1.65, 7.71, repro,
2006-08-08,-0.68, -0.53, 7.43, 2.08, 1.59, 7.34, repro,
2006-08-09,-0.31, 1.01, 6.29, 2.09, 1.59, 7.39, repro,
2006-08-10,-2.11, -0.08, 10.79, 2.11, 1.61, 7.58, repro,
2006-08-11,-1.42, 1.29, 9.20, 2.08, 1.59, 7.38, repro,
2006-08-12,-1.37, 0.16, 15.58, 2.08, 1.60, 7.42, repro,
2006-08-13,-1.34, -0.81, 15.18, 2.08, 1.60, 7.41, repro,
2006-08-14,-1.66, -0.51, 9.25, 2.12, 1.63, 7.43, repro,
2006-08-15,-2.04, -0.94, 12.07, 2.17, 1.62, 7.64, repro,
2006-08-16,0.41, 0.25, 6.54, 2.10, 1.60, 7.45, repro,
2006-08-17,-2.09, -1.39, 11.69, 2.09, 1.62, 7.54, repro,
2006-08-18,-1.37, 0.36, 6.38, 2.15, 1.68, 7.66, repro,
2006-08-19,0.46, -0.22, 6.09, 2.17, 1.69, 7.61, repro,
2006-08-20,-0.95, -0.53, 12.37, 2.08, 1.59, 7.42, repro,
2006-08-21,-0.09, 0.31, 13.59, 2.12, 1.64, 7.65, repro,
2006-08-22,-0.36, -0.35, 11.67, 2.08, 1.62, 7.49, repro,
2006-08-23,-1.62, 1.25, 14.86, 2.08, 1.63, 7.50, repro,
2006-08-24,-1.13, 0.35, 13.31, 2.15, 1.69, 7.67, repro,
2006-08-25,-1.98, 0.59, 19.41, 2.12, 1.65, 7.70, repro,
2006-08-26,-1.16, -0.38, 21.88, 2.16, 1.70, 8.00, repro,
2006-08-27,-0.70, -0.25, 12.39, 2.15, 1.71, 7.95, repro,
2006-08-28,-0.65, -0.34, 10.99, 2.14, 1.72, 7.97, repro,
2006-08-29,0.04, 0.54, 8.95, 2.21, 1.78, 8.08, repro,
2006-08-30,-0.02, -0.12, 9.84, 2.15, 1.69, 7.75, repro,
2006-08-31,-1.38, -0.20, 13.70, 2.23, 1.77, 8.14, repro,
2006-09-01,0.41, -0.22, 14.51, 2.22, 1.74, 8.14, repro,
2006-09-02,-0.53, -0.64, 6.29, 2.13, 1.70, 7.81, repro,
2006-09-03,-1.28, -0.55, 11.60, 2.14, 1.72, 7.91, repro,
2006-09-04,-0.13, -0.71, 8.97, 2.25, 1.75, 8.15, repro,
2006-09-05,-0.15, -0.13, 8.92, 2.25, 1.73, 8.08, repro,
2006-09-06,0.29, -0.66, 12.19, 2.18, 1.72, 8.00, repro,
2006-09-07,-0.96, -1.00, 26.19, 2.28, 1.81, 8.62, repro,
2006-09-08,-1.86, -0.33, 18.60, 2.26, 1.81, 8.53, repro,
2006-09-09,-2.07, -0.04, 13.39, 2.13, 1.68, 7.74, repro,
2006-09-10,0.68, -0.54, 13.67, 2.12, 1.66, 7.59, repro,
2006-09-11,-0.27, -1.06, 18.19, 2.14, 1.67, 7.73, repro,
2006-09-12,-0.18, -0.91, 14.06, 2.15, 1.68, 7.78, repro,
2006-09-13,-0.26, -0.51, 18.71, 2.14, 1.68, 7.70, repro,
2006-09-14,-1.43, -1.55, 21.10, 2.21, 1.77, 7.99, repro,
2006-09-15,0.05, -1.35, 11.79, 2.16, 1.63, 7.50, repro,
2006-09-16,-0.59, 0.71, 17.59, 2.12, 1.62, 7.56, repro,
2006-09-17,-1.17, 0.57, 19.14, 2.11, 1.64, 7.63, repro,
2006-09-18,-0.03, -0.71, 17.99, 2.10, 1.63, 7.51, repro,
2006-09-19,-0.28, 0.47, 12.94, 2.08, 1.62, 7.45, repro,
2006-09-20,-1.52, -1.52, 19.54, 2.14, 1.69, 7.62, repro,
2006-09-21,-1.03, -0.35, 23.38, 2.15, 1.68, 7.75, repro,
2006-09-22,-3.35, -3.21, 20.54, 2.21, 1.73, 7.98, repro,
2006-09-23,-0.88, -2.25, 21.54, 2.16, 1.67, 7.70, repro,
2006-09-24,0.61, 0.12, 14.68, 2.22, 1.69, 7.75, repro,
2006-09-25,-0.65, -0.05, 17.29, 2.20, 1.69, 7.83, repro,
2006-09-26,-0.25, -0.23, 15.23, 2.18, 1.65, 7.62, repro,
2006-09-27,0.41, -0.89, 10.13, 2.20, 1.68, 7.77, repro,
2006-09-28,-1.25, -1.11, 13.64, 2.17, 1.67, 7.67, repro,
2006-09-29,0.46, -0.55, 22.87, 2.25, 1.75, 7.87, repro,
2006-09-30,-0.17, -1.36, 25.08, 2.17, 1.70, 7.88, repro,
2006-10-01,-0.05, -0.73, 18.53, 2.11, 1.64, 7.55, repro,
2006-10-02,-0.44, -0.78, 9.28, 2.18, 1.70, 7.70, repro,
2006-10-03,-0.08, -1.90, 5.78, 2.21, 1.75, 7.97, repro,
2006-10-04,-0.31, -0.51, 20.86, 2.12, 1.65, 7.57, repro,
2006-10-05,-0.73, -0.94, 16.02, 2.13, 1.64, 7.60, repro,
2006-10-06,-0.26, -0.58, 13.89, 2.10, 1.64, 7.53, repro,
2006-10-07,0.17, -1.50, 9.98, 2.23, 1.73, 8.07, repro,
2006-10-08,-1.50, -1.35, 16.87, 2.16, 1.68, 7.73, repro,
2006-10-09,0.52, -1.28, 10.09, 2.17, 1.70, 7.83, repro,
2006-10-10,-2.40, -1.48, 9.54, 2.18, 1.69, 7.90, repro,
2006-10-11,-0.99, -1.40, 15.11, 2.15, 1.69, 7.86, repro,
2006-10-12,-1.44, -1.13, 19.42, 2.11, 1.64, 7.54, repro,
2006-10-13,-1.16, -1.51, 18.65, 2.09, 1.63, 7.50, repro,
2006-10-14,-0.24, -0.72, 18.39, 2.13, 1.67, 7.75, repro,
2006-10-15,-0.25, -0.38, 26.71, 2.16, 1.68, 7.84, repro,
2006-10-16,-0.40, -1.70, 22.49, 2.10, 1.64, 7.62, repro,
2006-10-17,-1.09, -1.02, 22.72, 2.14, 1.70, 8.01, repro,
2006-10-18,-0.53, -0.79, 21.53, 2.09, 1.65, 7.55, repro,
2006-10-19,-0.49, -0.97, 17.79, 2.31, 1.72, 8.27, repro,
2006-10-20,-0.92, -1.04, 20.93, 2.43, 1.89, 9.22, repro,
2006-10-21,-1.37, -0.42, 10.54, 2.28, 1.75, 8.27, repro,
2006-10-22,-1.25, 0.56, 15.00, 2.13, 1.70, 7.81, repro,
2006-10-23,0.62, 1.21, 13.81, 2.08, 1.66, 7.55, repro,
2006-10-24,-1.67, -0.34, 15.25, 2.33, 1.75, 8.44, repro,
2006-10-25,-1.35, -0.21, 16.74, 2.19, 1.71, 7.89, repro,
2006-10-26,-0.42, -0.12, 16.09, 2.13, 1.69, 7.78, repro,
2006-10-27,0.57, 0.43, 8.93, 2.15, 1.73, 7.88, repro,
2006-10-28,-1.02, 0.85, 8.12, 2.15, 1.65, 7.81, repro,
2006-10-29,-1.14, 0.27, 15.62, 2.11, 1.68, 7.76, repro,
2006-10-30,-1.58, -0.82, 18.44, 2.07, 1.61, 7.51, repro,
2006-10-31,-0.89, -0.01, 18.93, 2.12, 1.68, 7.77, repro,
2006-11-01,0.82, -1.37, 9.23, 2.13, 1.69, 7.85, repro,
2006-11-02,0.88, -1.84, 19.14, 2.10, 1.67, 7.73, repro,
2006-11-03,-1.25, 1.72, 7.52, 2.13, 1.74, 7.87, repro,
2006-11-04,-1.43, -0.52, 9.90, 2.20, 1.70, 7.94, repro,
2006-11-05,0.27, -1.40, 14.09, 2.17, 1.67, 7.80, repro,
2006-11-06,-0.68, -0.77, 8.18, 2.07, 1.62, 7.51, repro,
2006-11-07,1.52, 0.24, 11.18, 2.23, 1.76, 8.05, repro,
2006-11-08,-1.59, -0.31, 11.67, 2.16, 1.70, 7.84, repro,
2006-11-09,-0.64, 0.56, 13.04, 2.23, 1.75, 8.06, repro,
2006-11-10,-0.77, -0.31, 13.40, 2.16, 1.63, 7.66, repro,
2006-11-11,-1.06, 0.19, 9.23, 2.19, 1.67, 7.74, repro,
2006-11-12,-1.92, -0.99, 13.45, 2.24, 1.76, 8.04, repro,
2006-11-13,0.04, -0.91, 12.65, 2.21, 1.73, 7.88, repro,
2006-11-14,0.83, -0.64, 11.46, 2.08, 1.63, 7.53, repro,
2006-11-15,0.26, -1.23, 4.46, 2.05, 1.60, 7.39, repro,
2006-11-16,-1.04, -1.12, 13.49, 2.06, 1.60, 7.36, repro,
2006-11-17,-0.54, -1.16, 9.76, 2.05, 1.60, 7.35, repro,
2006-11-18,0.49, -0.65, 1.10, 2.05, 1.62, 7.37, repro,
2006-11-19,-1.41, -1.18, 14.63, 2.04, 1.62, 7.40, repro,
2006-11-20,0.89, -0.66, 5.23, 2.09, 1.66, 7.50, repro,
2006-11-21,2.16, -0.63, 2.30, 2.07, 1.61, 7.43, repro,
2006-11-22,-0.22, -1.68, 9.20, 2.05, 1.60, 7.33, repro,
2006-11-23,-0.48, 0.12, 3.13, 2.13, 1.73, 7.85, repro,
2006-11-24,-0.57, -0.99, 6.73, 2.17, 1.75, 8.03, repro,
2006-11-25,-0.29, -1.61, 6.54, 2.08, 1.63, 7.45, repro,
2006-11-26,1.03, 2.97, 10.42, 2.09, 1.63, 7.47, repro,
2006-11-27,-1.94, 0.28, 0.64, 2.09, 1.62, 7.40, repro,
2006-11-28,-3.95, -0.14, 8.48, 2.10, 1.68, 7.55, repro,
2006-11-29,-2.45, -0.47, 8.75, 2.07, 1.67, 7.61, repro,
2006-11-30,0.17, 0.10, -1.06, 2.04, 1.61, 7.36, repro,
2006-12-01,-1.11, -0.52, 2.31, 2.05, 1.62, 7.38, repro,
2006-12-02,0.35, -0.48, 3.86, 2.06, 1.62, 7.42, repro,
2006-12-03,0.38, -0.22, 2.76, 2.06, 1.63, 7.45, repro,
2006-12-04,-0.37, -0.48, -2.51, 2.10, 1.66, 7.58, repro,
2006-12-05,0.91, 0.31, 1.40, 2.06, 1.68, 7.48, repro,
2006-12-06,-0.21, -0.53, 0.84, 2.10, 1.75, 7.68, repro,
2006-12-07,-0.17, -1.50, 8.66, 2.08, 1.69, 7.55, repro,
2006-12-08,0.94, -0.80, 1.23, 2.10, 1.71, 7.66, repro,
2006-12-09,0.65, -3.31, 10.27, 2.14, 1.72, 7.76, repro,
2006-12-10,-0.47, -0.49, 9.33, 2.12, 1.73, 7.71, repro,
2006-12-11,-1.00, -1.19, 6.72, 2.05, 1.64, 7.44, repro,
2006-12-12,-0.24, -0.25, 3.61, 2.13, 1.71, 7.64, repro,
2006-12-13,-1.19, 0.06, 0.52, 2.07, 1.68, 7.65, repro,
2006-12-14,0.04, 0.48, 0.10, 2.09, 1.71, 7.68, repro,
2006-12-15,0.18, -2.86, 5.88, 2.11, 1.74, 7.71, repro,
2006-12-16,-0.12, -2.08, 6.67, 2.15, 1.77, 7.75, repro,
2006-12-17,-0.36, -2.38, -0.50, 2.10, 1.73, 7.72, repro,
2006-12-18,0.16, -0.72, -1.05, 2.20, 1.87, 8.20, repro,
2006-12-19,-0.69, -1.31, 5.94, 2.15, 1.85, 8.13, repro,
2006-12-20,0.21, -0.96, -0.58, 2.15, 1.81, 7.76, repro,
2006-12-21,1.79, -0.12, -11.39, 2.06, 1.76, 7.67, repro,
2006-12-22,-1.05, -1.71, 4.86, 2.20, 1.90, 8.28, repro,
2006-12-23,0.21, 0.27, -0.18, 2.15, 1.77, 8.02, repro,
2006-12-24,-2.39, -2.40, 1.90, 2.08, 1.67, 7.61, repro,
2006-12-25,-0.90, -3.42, 6.15, 2.11, 1.77, 7.75, repro,
2006-12-26,2.10, -1.54, 9.80, 2.10, 1.75, 7.82, repro,
2006-12-27,2.12, -0.72, 4.05, 2.18, 1.80, 8.11, repro,
2006-12-28,-0.77, -1.94, 3.77, 2.23, 1.93, 8.50, repro,
2006-12-29,-1.19, -1.38, -15.21, 2.09, 1.71, 7.76, repro,
2006-12-30,-0.27, -1.42, -1.20, 2.12, 1.74, 7.79, repro,
2006-12-31,1.15, -1.81, -4.39, 2.22, 1.85, 8.10, repro,
2007-01-01,0.51, -1.59, -5.98, 2.22, 1.84, 8.10, repro,
2007-01-02,-0.55, -0.57, 10.06, 2.21, 1.92, 8.36, repro,
2007-01-03,-0.94, -1.18, 4.13, 2.07, 1.72, 7.73, repro,
2007-01-04,-1.91, -2.03, 6.24, 2.04, 1.66, 7.49, repro,
2007-01-05,-1.35, -1.65, 1.77, 2.07, 1.73, 7.71, repro,
2007-01-06,-2.83, -1.27, -0.02, 2.07, 1.71, 7.63, repro,
2007-01-07,0.13, -0.39, -2.23, 2.12, 1.72, 7.69, repro,
2007-01-08,-0.79, -1.31, -4.99, 2.15, 1.76, 7.86, repro,
2007-01-09,-0.35, -0.51, -3.75, 2.12, 1.71, 7.64, repro,
2007-01-10,-0.72, -0.93, 1.89, 2.12, 1.68, 7.56, repro,
2007-01-11,-0.29, -1.54, -3.29, 2.13, 1.65, 7.55, repro,
2007-01-12,-1.48, -2.82, 0.20, 2.03, 1.62, 7.33, repro,
2007-01-13,0.68, -0.35, -6.14, 2.00, 1.60, 7.21, repro,
2007-01-14,0.50, -0.78, -8.10, 2.00, 1.58, 7.13, repro,
2007-01-15,0.20, -0.97, -5.67, 2.01, 1.58, 7.17, repro,
2007-01-16,0.54, -0.55, -6.54, 2.05, 1.60, 7.26, repro,
2007-01-17,-1.79, -3.49, -0.96, 2.05, 1.64, 7.42, repro,
2007-01-18,-1.50, -3.73, -1.09, 2.10, 1.69, 7.63, repro,
2007-01-19,0.45, -0.47, -3.97, 2.11, 1.66, 7.76, repro,
2007-01-20,-0.46, 0.09, 3.05, 2.11, 1.67, 7.73, repro,
2007-01-21,-3.73, -0.70, 3.13, 2.00, 1.59, 7.17, repro,
2007-01-22,0.56, -0.39, -1.41, 2.00, 1.59, 7.11, repro,
2007-01-23,-0.32, -0.55, 0.18, 2.02, 1.59, 7.15, repro,
2007-01-24,-0.87, -0.28, -3.48, 2.01, 1.58, 7.17, repro,
2007-01-25,0.21, -0.26, -7.25, 2.05, 1.63, 7.29, repro,
2007-01-26,-0.59, -0.16, -2.35, 2.05, 1.63, 7.34, repro,
2007-01-27,-0.17, -0.63, 0.86, 2.00, 1.58, 7.09, repro,
2007-01-28,1.00, -0.02, -2.72, 1.99, 1.57, 7.01, repro,
2007-01-29,0.43, 0.23, -7.92, 2.01, 1.58, 7.10, repro,
2007-01-30,-0.44, 0.32, 1.81, 2.00, 1.58, 7.11, repro,
2007-01-31,-1.41, -0.16, 5.91, 1.99, 1.57, 7.05, repro,
2007-02-01,-0.79, 0.75, 6.16, 2.10, 1.67, 7.43, repro,
2007-02-02,-0.04, -0.10, 5.01, 2.05, 1.60, 7.25, repro,
2007-02-03,0.49, 0.10, -2.43, 2.06, 1.61, 7.35, repro,
2007-02-04,-0.60, 1.03, -0.36, 2.01, 1.59, 7.14, repro,
2007-02-05,-1.50, 0.53, -0.85, 2.01, 1.59, 7.18, repro,
2007-02-06,-1.56, 0.92, 1.33, 2.06, 1.60, 7.25, repro,
2007-02-07,0.41, -1.09, 3.32, 2.02, 1.58, 7.12, repro,
2007-02-08,1.41, 0.12, 0.53, 2.16, 1.69, 7.56, repro,
2007-02-09,2.27, -0.28, -6.10, 2.04, 1.64, 7.32, repro,
2007-02-10,-0.65, 0.09, 0.81, 2.00, 1.59, 7.13, repro,
2007-02-11,2.25, 0.36, 3.62, 2.03, 1.61, 7.22, repro,
2007-02-12,-1.14, -1.45, -3.86, 2.03, 1.64, 7.26, repro,
2007-02-13,-0.45, 0.46, -3.37, 2.01, 1.59, 7.10, repro,
2007-02-14,-0.74, 0.66, -6.15, 1.99, 1.58, 7.08, repro,
2007-02-15,-0.94, 0.23, -2.26, 2.02, 1.59, 7.18, repro,
2007-02-16,-0.02, 0.42, -1.31, 2.01, 1.59, 7.16, repro,
2007-02-17,-0.81, 0.48, 3.62, 2.05, 1.63, 7.23, repro,
2007-02-18,-2.23, 0.26, 5.30, 2.02, 1.61, 7.22, repro,
2007-02-19,-1.36, 0.69, 12.27, 2.07, 1.67, 7.53, repro,
2007-02-20,-2.20, -0.22, 7.30, 1.97, 1.58, 7.06, repro,
2007-02-21,-4.15, 4.74, 5.02, 2.02, 1.60, 7.21, repro,
2007-02-22,-7.46, 2.24, -9.88, 2.03, 1.61, 7.25, repro,
2007-02-23,-0.85, -1.19, -0.36, 2.24, 1.71, 7.71, repro,
2007-02-24,-0.60, 0.50, 7.50, 2.02, 1.61, 7.27, repro,
2007-02-25,-1.41, -1.21, 1.87, 1.99, 1.58, 7.09, repro,
2007-02-26,-1.82, -1.78, 2.45, 2.02, 1.62, 7.27, repro,
2007-02-27,-1.19, -2.20, 3.34, 2.03, 1.64, 7.29, repro,
2007-02-28,-1.84, -0.39, -0.41, 2.09, 1.66, 7.42, repro,
2007-03-01,-1.76, -0.98, -1.73, 2.11, 1.71, 7.60, repro,
2007-03-02,-4.21, -0.05, -4.30, 2.10, 1.71, 7.67, repro,
2007-03-03,-0.18, -1.55, -14.53, 2.03, 1.65, 7.31, repro,
2007-03-04,-0.76, -1.15, -0.76, 2.03, 1.64, 7.35, repro,
2007-03-05,-1.62, -1.29, -3.31, 2.03, 1.63, 7.25, repro,
2007-03-06,-2.09, -1.74, -0.73, 2.04, 1.64, 7.32, repro,
2007-03-07,-2.00, -0.41, 1.04, 2.04, 1.63, 7.32, repro,
2007-03-08,-1.80, -0.75, 4.87, 2.02, 1.62, 7.25, repro,
2007-03-09,-1.39, -1.21, 8.24, 2.04, 1.63, 7.30, repro,
2007-03-10,-2.11, -1.20, -0.37, 2.11, 1.66, 7.51, repro,
2007-03-11,-1.44, -0.48, -2.61, 2.05, 1.63, 7.33, repro,
2007-03-12,-1.50, -1.22, 3.93, 2.10, 1.67, 7.45, repro,
2007-03-13,-2.33, -1.03, 1.99, 2.03, 1.58, 7.14, repro,
2007-03-14,-2.05, 0.52, 3.55, 2.02, 1.62, 7.21, repro,
2007-03-15,-2.54, 0.10, 2.12, 2.07, 1.64, 7.33, repro,
2007-03-16,-2.56, -1.20, 6.91, 2.04, 1.60, 7.20, repro,
2007-03-17,-3.30, -0.71, 6.01, 2.02, 1.57, 7.07, repro,
2007-03-18,-1.17, 0.40, 9.89, 2.03, 1.57, 7.10, repro,
2007-03-19,-1.25, 0.33, 5.27, 2.05, 1.60, 7.18, repro,
2007-03-20,-2.33, 0.68, 9.86, 2.09, 1.60, 7.20, repro,
2007-03-21,-3.69, -1.57, 13.85, 2.10, 1.64, 7.36, repro,
2007-03-22,-2.05, -2.42, 10.43, 2.02, 1.57, 7.11, repro,
2007-03-23,-1.43, -2.24, 4.58, 2.01, 1.56, 6.99, repro,
2007-03-24,-2.45, 0.23, 7.57, 2.02, 1.56, 7.05, repro,
2007-03-25,-2.57, -0.86, 9.51, 2.03, 1.58, 7.15, repro,
2007-03-26,-2.73, -0.98, 5.42, 2.05, 1.61, 7.23, repro,
2007-03-27,-2.37, -0.21, -0.49, 2.06, 1.59, 7.17, repro,
2007-03-28,-4.79, -0.06, 8.07, 2.07, 1.59, 7.19, repro,
2007-03-29,-2.37, -0.46, 1.05, 2.02, 1.58, 7.14, repro,
2007-03-30,-1.93, -0.57, 1.49, 2.07, 1.62, 7.22, repro,
2007-03-31,-1.49, -0.57, 4.57, 2.00, 1.57, 7.02, repro,
2007-04-01,-2.43, -1.21, 10.48, 2.01, 1.57, 7.03, repro,
2007-04-02,-3.08, -0.40, 6.40, 2.00, 1.57, 7.02, repro,
2007-04-03,-2.82, -0.74, 2.56, 2.11, 1.66, 7.42, repro,
2007-04-04,-1.42, -1.16, -4.34, 2.13, 1.72, 7.59, repro,
2007-04-05,-1.66, -0.28, 0.78, 2.14, 1.72, 7.54, repro,
2007-04-06,-2.35, 0.17, 1.49, 2.08, 1.64, 7.26, repro,
2007-04-07,-1.15, -1.83, 7.89, 2.05, 1.61, 7.20, repro,
2007-04-08,-1.59, -0.76, 3.96, 2.01, 1.56, 6.99, repro,
2007-04-09,-1.95, -1.32, 6.72, 2.03, 1.58, 7.15, repro,
2007-04-10,-1.40, -1.96, 10.09, 2.09, 1.61, 7.34, repro,
2007-04-11,-1.80, -0.31, 1.25, 2.03, 1.57, 7.08, repro,
2007-04-12,-3.09, -1.79, 10.24, 2.02, 1.57, 7.04, repro,
2007-04-13,-3.01, -1.08, 3.04, 2.03, 1.56, 6.99, repro,
2007-04-14,-3.77, -2.82, 11.33, 2.10, 1.60, 7.31, repro,
2007-04-15,-3.14, -1.54, 9.96, 2.04, 1.58, 7.18, repro,
2007-04-16,-2.25, 0.31, 4.56, 2.03, 1.56, 7.07, repro,
2007-04-17,-2.39, -0.18, 1.02, 2.02, 1.57, 7.10, repro,
2007-04-18,-1.19, -0.98, -1.39, 2.02, 1.57, 7.05, repro,
2007-04-19,-1.78, -0.72, 2.87, 2.03, 1.56, 7.04, repro,
2007-04-20,-1.37, -2.62, 3.35, 2.02, 1.56, 7.05, repro,
2007-04-21,-0.09, -0.71, 5.11, 2.04, 1.57, 7.16, repro,
2007-04-22,-2.07, -2.23, 7.56, 2.04, 1.56, 7.09, repro,
2007-04-23,-1.04, -1.60, 3.15, 2.05, 1.59, 7.16, repro,
2007-04-24,-1.75, -0.86, 1.65, 2.08, 1.58, 7.20, repro,
2007-04-25,-0.82, -0.56, 1.54, 2.07, 1.58, 7.23, repro,
2007-04-26,-2.09, -0.68, 1.68, 2.06, 1.57, 7.16, repro,
2007-04-27,-1.71, -1.62, 6.23, 2.03, 1.56, 7.13, repro,
2007-04-28,-1.63, -0.96, 6.89, 2.03, 1.57, 7.17, repro,
2007-04-29,-2.41, -1.61, -0.36, 2.02, 1.56, 7.08, repro,
2007-04-30,-0.61, -1.60, 3.51, 2.04, 1.55, 7.07, repro,
2007-05-01,-2.69, -1.92, 3.05, 2.05, 1.57, 7.19, repro,
2007-05-02,-0.47, -1.08, -3.47, 2.13, 1.58, 7.51, repro,
2007-05-03,-4.66, -2.32, 9.85, 2.11, 1.58, 7.37, repro,
2007-05-04,-1.86, -2.25, 5.66, 2.02, 1.55, 7.05, repro,
2007-05-05,-3.07, -0.51, 3.63, 2.08, 1.61, 7.36, repro,
2007-05-06,-1.21, -2.32, 1.39, 2.06, 1.56, 7.16, repro,
2007-05-07,-4.30, -2.37, 5.43, 2.07, 1.60, 7.33, repro,
2007-05-09,-2.00, -2.21, 6.18, 2.06, 1.56, 7.20, repro,
2007-05-10,-1.47, -1.54, -0.72, 2.13, 1.63, 7.52, repro,
2007-05-11,-0.67, -0.81, -6.58, 2.15, 1.63, 7.51, repro,
2007-05-12,-1.98, -0.81, 6.29, 2.13, 1.58, 7.32, repro,
2007-05-13,-1.36, -1.07, 1.70, 2.11, 1.60, 7.35, repro,
2007-05-14,-0.86, -1.79, 0.45, 2.09, 1.59, 7.27, repro,
2007-05-15,-1.21, -1.85, 0.35, 2.07, 1.57, 7.27, repro,
2007-05-16,-1.37, -1.08, -1.51, 2.11, 1.61, 7.36, repro,
2007-05-17,-1.35, -1.22, 2.93, 2.08, 1.60, 7.32, repro,
2007-05-18,-1.17, -0.86, 4.51, 2.17, 1.68, 7.68, repro,
2007-05-19,-1.54, -1.48, 9.16, 2.12, 1.62, 7.43, repro,
2007-05-20,0.55, -1.39, -0.85, 2.18, 1.68, 7.65, repro,
2007-05-21,-0.85, -0.27, 2.33, 2.11, 1.61, 7.41, repro,
2007-05-22,-0.65, -1.40, 7.03, 2.12, 1.60, 7.35, repro,
2007-05-23,-1.04, -1.64, 2.66, 2.10, 1.59, 7.34, repro,
2007-05-24,-1.03, -1.24, 4.14, 2.15, 1.64, 7.43, repro,
2007-05-25,-1.48, -0.68, 1.27, 2.08, 1.58, 7.28, repro,
2007-05-26,-1.06, 0.12, 0.11, 2.11, 1.62, 7.40, repro,
2007-05-27,-2.51, -0.58, 3.90, 2.15, 1.63, 7.51, repro,
2007-05-28,-0.95, -1.98, 2.05, 2.14, 1.64, 7.45, repro,
2007-05-29,-1.18, -1.91, 2.00, 2.09, 1.61, 7.23, repro,
2007-05-30,-0.91, -1.78, 7.25, 2.15, 1.62, 7.46, repro,
2007-05-31,-1.60, -1.19, 2.85, 2.12, 1.61, 7.44, repro,
2007-06-01,-1.89, -1.63, 9.59, 2.08, 1.58, 7.28, repro,
2007-06-02,-1.27, -2.50, 5.30, 2.14, 1.63, 7.48, repro,
2007-06-03,-1.21, -1.84, 1.44, 2.06, 1.57, 7.18, repro,
2007-06-04,-2.88, -0.29, 10.82, 2.07, 1.57, 7.23, repro,
2007-06-05,-1.98, 0.01, 4.13, 2.18, 1.66, 7.65, repro,
2007-06-06,-0.34, -1.59, 11.37, 2.17, 1.68, 7.60, repro,
2007-06-07,-0.63, -1.45, 7.32, 2.14, 1.65, 7.42, repro,
2007-06-08,-1.63, -1.80, 3.75, 2.05, 1.56, 7.12, repro,
2007-06-09,-1.87, -1.39, 2.73, 2.07, 1.60, 7.28, repro,
2007-06-10,-0.95, -2.47, 2.91, 2.08, 1.58, 7.24, repro,
2007-06-11,-1.01, -1.33, 1.41, 2.12, 1.66, 7.45, repro,
2007-06-12,-0.31, -0.43, 3.59, 2.10, 1.66, 7.40, repro,
2007-06-13,0.23, -0.99, -2.94, 2.11, 1.61, 7.36, repro,
2007-06-14,-1.16, -1.90, -6.76, 2.16, 1.66, 7.48, repro,
2007-06-15,-1.90, -1.30, 3.87, 2.11, 1.60, 7.32, repro,
2007-06-16,-1.29, -0.82, -0.27, 2.10, 1.63, 7.34, repro,
2007-06-17,-0.02, -1.14, 2.55, 2.12, 1.59, 7.27, repro,
2007-06-18,-0.10, -0.21, 4.54, 2.12, 1.60, 7.33, repro,
2007-06-19,-1.08, -1.36, 0.59, 2.09, 1.61, 7.31, repro,
2007-06-20,-1.35, -0.11, 1.70, 2.05, 1.57, 7.14, repro,
2007-06-21,-1.74, -1.05, 4.52, 2.06, 1.57, 7.15, repro,
2007-06-22,-1.36, -0.78, 4.32, 2.11, 1.60, 7.40, repro,
2007-06-23,-1.07, -1.04, -2.23, 2.16, 1.66, 7.55, repro,
2007-06-24,-2.38, -0.31, 3.68, 2.09, 1.60, 7.38, repro,
2007-06-25,-0.58, -0.51, 2.30, 2.05, 1.57, 7.16, repro,
2007-06-26,-0.20, -1.20, -2.20, 2.06, 1.57, 7.20, repro,
2007-06-27,0.09, -0.31, -1.46, 2.13, 1.68, 7.54, repro,
2007-06-28,-0.80, 0.62, -3.19, 2.08, 1.58, 7.30, repro,
2007-06-29,-1.41, 1.16, 3.35, 2.10, 1.61, 7.39, repro,
2007-06-30,-1.68, -1.29, 1.93, 2.06, 1.57, 7.21, repro,
2007-07-01,-0.05, -2.59, 5.71, 2.06, 1.57, 7.20, repro,
2007-07-02,-1.64, 0.38, 2.89, 2.06, 1.56, 7.16, repro,
2007-07-03,-0.44, 0.05, 1.73, 2.12, 1.65, 7.46, repro,
2007-07-04,-0.32, 0.07, 1.57, 2.11, 1.61, 7.35, repro,
2007-07-05,-0.94, -2.40, 1.91, 2.10, 1.61, 7.32, repro,
2007-07-06,-0.03, -0.90, 6.77, 2.05, 1.56, 7.10, repro,
2007-07-07,-2.19, -1.37, 10.64, 2.06, 1.57, 7.19, repro,
2007-07-08,-2.56, 0.58, 5.65, 2.11, 1.64, 7.39, repro,
2007-07-09,-1.81, -2.19, 6.83, 2.12, 1.63, 7.40, repro,
2007-07-10,-0.88, -1.39, 7.72, 2.07, 1.58, 7.25, repro,
2007-07-11,-1.49, -0.75, 5.96, 2.06, 1.57, 7.16, repro,
2007-07-12,-2.19, -0.92, 3.33, 2.05, 1.57, 7.12, repro,